owner,sensor,date,latitude,longitude,air_pressure(mBar),qcFlag 
TABS,ioos:station:wmo:42045:1,2017-03-01T00:00:00Z,26.2168,-96.4998,1011.8,11111222 
TABS,ioos:station:wmo:42045:1,2017-03-01T00:30:00Z,26.2168,-96.4998,1011.87,11111222 
TABS,ioos:station:wmo:42045:1,2017-03-01T01:00:00Z,26.2168,-96.4998,1011.83,11111222 
TABS,ioos:station:wmo:42045:1,2017-03-01T01:30:00Z,26.2168,-96.4998,1012.0,11111222 
TABS,ioos:station:wmo:42045:1,2017-03-01T02:00:00Z,26.2168,-96.4998,1012.24,11111222 
TABS,ioos:station:wmo:42045:1,2017-03-01T02:30:00Z,26.2168,-96.4998,1012.2,11111222 
TABS,ioos:station:wmo:42045:1,2017-03-01T03:00:00Z,26.2168,-96.4998,1012.47,11111222 
TABS,ioos:station:wmo:42045:1,2017-03-01T03:30:00Z,26.2168,-96.4998,1012.45,11111222 
TABS,ioos:station:wmo:42045:1,2017-03-01T04:00:00Z,26.2168,-96.4998,1012.36,11111222 
TABS,ioos:station:wmo:42045:1,2017-03-01T04:30:00Z,26.2168,-96.4998,1012.14,11111222 
TABS,ioos:station:wmo:42045:1,2017-03-01T05:00:00Z,26.2168,-96.4998,1012.45,11111222 
TABS,ioos:station:wmo:42045:1,2017-03-01T05:30:00Z,26.2168,-96.4998,1012.24,11111222 
TABS,ioos:station:wmo:42045:1,2017-03-01T06:00:00Z,26.2168,-96.4998,1012.21,11111222 
TABS,ioos:station:wmo:42045:1,2017-03-01T06:30:00Z,26.2168,-96.4998,1012.97,11111222 
TABS,ioos:station:wmo:42045:1,2017-03-01T07:00:00Z,26.2168,-96.4998,1012.75,11111222 
TABS,ioos:station:wmo:42045:1,2017-03-01T07:30:00Z,26.2168,-96.4998,1013.2,11111222 
TABS,ioos:station:wmo:42045:1,2017-03-01T08:00:00Z,26.2168,-96.4998,1012.78,11111222 
TABS,ioos:station:wmo:42045:1,2017-03-01T08:30:00Z,26.2168,-96.4998,1012.57,11111222 
TABS,ioos:station:wmo:42045:1,2017-03-01T09:00:00Z,26.2168,-96.4998,1011.84,11111222 
TABS,ioos:station:wmo:42045:1,2017-03-01T09:30:00Z,26.2168,-96.4998,1011.7,11111222 
TABS,ioos:station:wmo:42045:1,2017-03-01T10:00:00Z,26.2168,-96.4998,1011.73,11111222 
TABS,ioos:station:wmo:42045:1,2017-03-01T10:30:00Z,26.2168,-96.4998,1011.72,11111222 
TABS,ioos:station:wmo:42045:1,2017-03-01T11:00:00Z,26.2168,-96.4998,1012.31,11111222 
TABS,ioos:station:wmo:42045:1,2017-03-01T11:30:00Z,26.2168,-96.4998,1013.45,11111222 
TABS,ioos:station:wmo:42045:1,2017-03-01T12:00:00Z,26.2168,-96.4998,1014.0,11111222 
TABS,ioos:station:wmo:42045:1,2017-03-01T12:30:00Z,26.2168,-96.4998,1014.2,11111222 
TABS,ioos:station:wmo:42045:1,2017-03-01T13:00:00Z,26.2168,-96.4998,1014.65,11111222 
TABS,ioos:station:wmo:42045:1,2017-03-01T13:30:00Z,26.2168,-96.4998,1015.05,11111222 
TABS,ioos:station:wmo:42045:1,2017-03-01T14:00:00Z,26.2168,-96.4998,1015.04,11111222 
TABS,ioos:station:wmo:42045:1,2017-03-01T14:30:00Z,26.2168,-96.4998,1015.07,11111222 
TABS,ioos:station:wmo:42045:1,2017-03-01T15:00:00Z,26.2168,-96.4998,1015.94,11111222 
TABS,ioos:station:wmo:42045:1,2017-03-01T15:30:00Z,26.2168,-96.4998,1016.04,11111222 
TABS,ioos:station:wmo:42045:1,2017-03-01T16:00:00Z,26.2168,-96.4998,1015.99,11111222 
TABS,ioos:station:wmo:42045:1,2017-03-01T16:30:00Z,26.2168,-96.4998,1016.22,11111222 
TABS,ioos:station:wmo:42045:1,2017-03-01T17:00:00Z,26.2168,-96.4998,1016.26,11111222 
TABS,ioos:station:wmo:42045:1,2017-03-01T17:30:00Z,26.2168,-96.4998,1016.38,11111222 
TABS,ioos:station:wmo:42045:1,2017-03-01T18:00:00Z,26.2168,-96.4998,1016.19,11111222 
TABS,ioos:station:wmo:42045:1,2017-03-01T18:30:00Z,26.2168,-96.4998,1015.92,11111222 
TABS,ioos:station:wmo:42045:1,2017-03-01T19:00:00Z,26.2168,-96.4998,1015.76,11111222 
TABS,ioos:station:wmo:42045:1,2017-03-01T19:30:00Z,26.2168,-96.4998,1015.46,11111222 
TABS,ioos:station:wmo:42045:1,2017-03-01T20:00:00Z,26.2168,-96.4998,1015.01,11111222 
TABS,ioos:station:wmo:42045:1,2017-03-01T20:30:00Z,26.2168,-96.4998,1014.73,11111222 
TABS,ioos:station:wmo:42045:1,2017-03-01T21:00:00Z,26.2168,-96.4998,1014.84,11111222 
TABS,ioos:station:wmo:42045:1,2017-03-01T21:30:00Z,26.2168,-96.4998,1014.73,11111222 
TABS,ioos:station:wmo:42045:1,2017-03-01T22:00:00Z,26.2168,-96.4998,1014.87,11111222 
TABS,ioos:station:wmo:42045:1,2017-03-01T22:30:00Z,26.2168,-96.4998,1015.01,11111222 
TABS,ioos:station:wmo:42045:1,2017-03-01T23:00:00Z,26.2168,-96.4998,1014.99,11111222 
TABS,ioos:station:wmo:42045:1,2017-03-01T23:30:00Z,26.2168,-96.4998,1015.19,11111222 
TABS,ioos:station:wmo:42045:1,2017-03-02T00:00:00Z,26.2168,-96.4998,1015.8,11111222 
TABS,ioos:station:wmo:42045:1,2017-03-02T00:30:00Z,26.2168,-96.4998,1016.15,11111222 
TABS,ioos:station:wmo:42045:1,2017-03-02T01:00:00Z,26.2168,-96.4998,1016.6,11111222 
TABS,ioos:station:wmo:42045:1,2017-03-02T01:30:00Z,26.2168,-96.4998,1017.09,11111222 
TABS,ioos:station:wmo:42045:1,2017-03-02T02:00:00Z,26.2168,-96.4998,1017.58,11111222 
TABS,ioos:station:wmo:42045:1,2017-03-02T02:30:00Z,26.2168,-96.4998,1017.89,11111222 
TABS,ioos:station:wmo:42045:1,2017-03-02T03:00:00Z,26.2168,-96.4998,1017.84,11111222 
TABS,ioos:station:wmo:42045:1,2017-03-02T03:30:00Z,26.2168,-96.4998,1018.3,11111222 
TABS,ioos:station:wmo:42045:1,2017-03-02T04:00:00Z,26.2168,-96.4998,1019.12,11111222 
TABS,ioos:station:wmo:42045:1,2017-03-02T04:30:00Z,26.2168,-96.4998,1018.96,11111222 
TABS,ioos:station:wmo:42045:1,2017-03-02T05:00:00Z,26.2168,-96.4998,1018.88,11111222 
TABS,ioos:station:wmo:42045:1,2017-03-02T05:30:00Z,26.2168,-96.4998,1019.19,11111222 
TABS,ioos:station:wmo:42045:1,2017-03-02T06:00:00Z,26.2168,-96.4998,1019.32,11111222 
TABS,ioos:station:wmo:42045:1,2017-03-02T06:30:00Z,26.2168,-96.4998,1019.3,11111222 
TABS,ioos:station:wmo:42045:1,2017-03-02T07:00:00Z,26.2168,-96.4998,1019.28,11111222 
TABS,ioos:station:wmo:42045:1,2017-03-02T07:30:00Z,26.2168,-96.4998,1019.55,11111222 
TABS,ioos:station:wmo:42045:1,2017-03-02T08:00:00Z,26.2168,-96.4998,1019.45,11111222 
TABS,ioos:station:wmo:42045:1,2017-03-02T08:30:00Z,26.2168,-96.4998,1019.58,11111222 
TABS,ioos:station:wmo:42045:1,2017-03-02T09:00:00Z,26.2168,-96.4998,1019.32,11111222 
TABS,ioos:station:wmo:42045:1,2017-03-02T09:30:00Z,26.2168,-96.4998,1019.21,11111222 
TABS,ioos:station:wmo:42045:1,2017-03-02T10:00:00Z,26.2168,-96.4998,1019.14,11111222 
TABS,ioos:station:wmo:42045:1,2017-03-02T10:30:00Z,26.2168,-96.4998,1019.56,11111222 
TABS,ioos:station:wmo:42045:1,2017-03-02T11:00:00Z,26.2168,-96.4998,1019.87,11111222 
TABS,ioos:station:wmo:42045:1,2017-03-02T11:30:00Z,26.2168,-96.4998,1020.24,11111222 
TABS,ioos:station:wmo:42045:1,2017-03-02T12:00:00Z,26.2168,-96.4998,1020.65,11111222 
TABS,ioos:station:wmo:42045:1,2017-03-02T12:30:00Z,26.2168,-96.4998,1020.47,11111222 
TABS,ioos:station:wmo:42045:1,2017-03-02T13:00:00Z,26.2168,-96.4998,1021.13,11111222 
TABS,ioos:station:wmo:42045:1,2017-03-02T13:30:00Z,26.2168,-96.4998,1021.15,11111222 
TABS,ioos:station:wmo:42045:1,2017-03-02T14:00:00Z,26.2168,-96.4998,1021.73,11111222 
TABS,ioos:station:wmo:42045:1,2017-03-02T14:30:00Z,26.2168,-96.4998,1022.81,11111222 
TABS,ioos:station:wmo:42045:1,2017-03-02T15:00:00Z,26.2168,-96.4998,1023.32,11111222 
TABS,ioos:station:wmo:42045:1,2017-03-02T15:30:00Z,26.2168,-96.4998,1023.23,11111222 
TABS,ioos:station:wmo:42045:1,2017-03-02T16:00:00Z,26.2168,-96.4998,1024.06,11111222 
TABS,ioos:station:wmo:42045:1,2017-03-02T16:30:00Z,26.2168,-96.4998,1024.43,11111222 
TABS,ioos:station:wmo:42045:1,2017-03-02T17:00:00Z,26.2168,-96.4998,1024.85,11111222 
TABS,ioos:station:wmo:42045:1,2017-03-02T17:30:00Z,26.2168,-96.4998,1024.85,11111222 
TABS,ioos:station:wmo:42045:1,2017-03-02T18:00:00Z,26.2168,-96.4998,1025.09,11111222 
TABS,ioos:station:wmo:42045:1,2017-03-02T18:30:00Z,26.2168,-96.4998,1024.73,11111222 
TABS,ioos:station:wmo:42045:1,2017-03-02T19:00:00Z,26.2168,-96.4998,1024.46,11111222 
TABS,ioos:station:wmo:42045:1,2017-03-02T19:30:00Z,26.2168,-96.4998,1024.08,11111222 
TABS,ioos:station:wmo:42045:1,2017-03-02T20:00:00Z,26.2168,-96.4998,1023.56,11111222 
TABS,ioos:station:wmo:42045:1,2017-03-02T20:30:00Z,26.2168,-96.4998,1023.67,11111222 
TABS,ioos:station:wmo:42045:1,2017-03-02T21:00:00Z,26.2168,-96.4998,1023.79,11111222 
TABS,ioos:station:wmo:42045:1,2017-03-02T21:30:00Z,26.2168,-96.4998,1023.86,11111222 
TABS,ioos:station:wmo:42045:1,2017-03-02T22:00:00Z,26.2168,-96.4998,1023.83,11111222 
TABS,ioos:station:wmo:42045:1,2017-03-02T22:30:00Z,26.2168,-96.4998,1024.44,11111222 
TABS,ioos:station:wmo:42045:1,2017-03-02T23:00:00Z,26.2168,-96.4998,1024.64,11111222 
TABS,ioos:station:wmo:42045:1,2017-03-02T23:30:00Z,26.2168,-96.4998,1024.76,11111222 
TABS,ioos:station:wmo:42045:1,2017-03-03T00:00:00Z,26.2168,-96.4998,1025.18,11111222 
TABS,ioos:station:wmo:42045:1,2017-03-03T00:30:00Z,26.2168,-96.4998,1025.3,11111222 
TABS,ioos:station:wmo:42045:1,2017-03-03T01:00:00Z,26.2168,-96.4998,1025.98,11111222 
TABS,ioos:station:wmo:42045:1,2017-03-03T01:30:00Z,26.2168,-96.4998,1026.38,11111222 
TABS,ioos:station:wmo:42045:1,2017-03-03T02:00:00Z,26.2168,-96.4998,1026.71,11111222 
TABS,ioos:station:wmo:42045:1,2017-03-03T02:30:00Z,26.2168,-96.4998,1026.84,11111222 
TABS,ioos:station:wmo:42045:1,2017-03-03T03:00:00Z,26.2168,-96.4998,1027.4,11111222 
TABS,ioos:station:wmo:42045:1,2017-03-03T03:30:00Z,26.2168,-96.4998,1027.13,11111222 
TABS,ioos:station:wmo:42045:1,2017-03-03T04:00:00Z,26.2168,-96.4998,1027.36,11111222 
TABS,ioos:station:wmo:42045:1,2017-03-03T04:30:00Z,26.2168,-96.4998,1027.48,11111222 
TABS,ioos:station:wmo:42045:1,2017-03-03T05:00:00Z,26.2168,-96.4998,1027.48,11111222 
TABS,ioos:station:wmo:42045:1,2017-03-03T05:30:00Z,26.2168,-96.4998,1027.3,11111222 
TABS,ioos:station:wmo:42045:1,2017-03-03T06:00:00Z,26.2168,-96.4998,1027.49,11111222 
TABS,ioos:station:wmo:42045:1,2017-03-03T06:30:00Z,26.2168,-96.4998,1027.3,11111222 
TABS,ioos:station:wmo:42045:1,2017-03-03T07:00:00Z,26.2168,-96.4998,1027.45,11111222 
TABS,ioos:station:wmo:42045:1,2017-03-03T07:30:00Z,26.2168,-96.4998,1027.46,11111222 
TABS,ioos:station:wmo:42045:1,2017-03-03T08:00:00Z,26.2168,-96.4998,1027.33,11111222 
TABS,ioos:station:wmo:42045:1,2017-03-03T08:30:00Z,26.2168,-96.4998,1026.93,11111222 
TABS,ioos:station:wmo:42045:1,2017-03-03T09:00:00Z,26.2168,-96.4998,1026.71,11111222 
TABS,ioos:station:wmo:42045:1,2017-03-03T09:30:00Z,26.2168,-96.4998,1026.77,11111222 
TABS,ioos:station:wmo:42045:1,2017-03-03T10:00:00Z,26.2168,-96.4998,1026.43,11111222 
TABS,ioos:station:wmo:42045:1,2017-03-03T10:30:00Z,26.2168,-96.4998,1026.64,11111222 
TABS,ioos:station:wmo:42045:1,2017-03-03T11:00:00Z,26.2168,-96.4998,1026.88,11111222 
TABS,ioos:station:wmo:42045:1,2017-03-03T11:30:00Z,26.2168,-96.4998,1027.02,11111222 
TABS,ioos:station:wmo:42045:1,2017-03-03T12:00:00Z,26.2168,-96.4998,1027.62,11111222 
TABS,ioos:station:wmo:42045:1,2017-03-03T12:30:00Z,26.2168,-96.4998,1027.84,11111222 
TABS,ioos:station:wmo:42045:1,2017-03-03T13:00:00Z,26.2168,-96.4998,1027.89,11111222 
TABS,ioos:station:wmo:42045:1,2017-03-03T13:30:00Z,26.2168,-96.4998,1027.96,11111222 
TABS,ioos:station:wmo:42045:1,2017-03-03T14:00:00Z,26.2168,-96.4998,1028.68,11111222 
TABS,ioos:station:wmo:42045:1,2017-03-03T14:30:00Z,26.2168,-96.4998,1028.89,11111222 
TABS,ioos:station:wmo:42045:1,2017-03-03T15:00:00Z,26.2168,-96.4998,1029.44,11111222 
TABS,ioos:station:wmo:42045:1,2017-03-03T15:30:00Z,26.2168,-96.4998,1029.67,11111222 
TABS,ioos:station:wmo:42045:1,2017-03-03T16:00:00Z,26.2168,-96.4998,1029.92,11111222 
TABS,ioos:station:wmo:42045:1,2017-03-03T16:30:00Z,26.2168,-96.4998,1029.92,11111222 
TABS,ioos:station:wmo:42045:1,2017-03-03T17:00:00Z,26.2168,-96.4998,1030.04,11111222 
TABS,ioos:station:wmo:42045:1,2017-03-03T17:30:00Z,26.2168,-96.4998,1029.89,11111222 
TABS,ioos:station:wmo:42045:1,2017-03-03T18:00:00Z,26.2168,-96.4998,1029.68,11111222 
TABS,ioos:station:wmo:42045:1,2017-03-03T18:30:00Z,26.2168,-96.4998,1029.06,11111222 
TABS,ioos:station:wmo:42045:1,2017-03-03T19:00:00Z,26.2168,-96.4998,1028.58,11111222 
TABS,ioos:station:wmo:42045:1,2017-03-03T19:30:00Z,26.2168,-96.4998,1028.22,11111222 
TABS,ioos:station:wmo:42045:1,2017-03-03T20:00:00Z,26.2168,-96.4998,1027.87,11111222 
TABS,ioos:station:wmo:42045:1,2017-03-03T20:30:00Z,26.2168,-96.4998,1027.49,11111222 
TABS,ioos:station:wmo:42045:1,2017-03-03T21:00:00Z,26.2168,-96.4998,1027.18,11111222 
TABS,ioos:station:wmo:42045:1,2017-03-03T21:30:00Z,26.2168,-96.4998,1027.17,11111222 
TABS,ioos:station:wmo:42045:1,2017-03-03T22:00:00Z,26.2168,-96.4998,1026.78,11111222 
TABS,ioos:station:wmo:42045:1,2017-03-03T22:30:00Z,26.2168,-96.4998,1026.93,11111222 
TABS,ioos:station:wmo:42045:1,2017-03-03T23:00:00Z,26.2168,-96.4998,1026.55,11111222 
TABS,ioos:station:wmo:42045:1,2017-03-03T23:30:00Z,26.2168,-96.4998,1026.95,11111222 
TABS,ioos:station:wmo:42045:1,2017-03-04T00:00:00Z,26.2168,-96.4998,1027.32,11111222 
TABS,ioos:station:wmo:42045:1,2017-03-04T00:30:00Z,26.2168,-96.4998,1027.15,11111222 
TABS,ioos:station:wmo:42045:1,2017-03-04T01:00:00Z,26.2168,-96.4998,1027.4,11111222 
TABS,ioos:station:wmo:42045:1,2017-03-04T01:30:00Z,26.2168,-96.4998,1027.27,11111222 
TABS,ioos:station:wmo:42045:1,2017-03-04T02:00:00Z,26.2168,-96.4998,1027.07,11111222 
TABS,ioos:station:wmo:42045:1,2017-03-04T02:30:00Z,26.2168,-96.4998,1027.12,11111222 
TABS,ioos:station:wmo:42045:1,2017-03-04T03:00:00Z,26.2168,-96.4998,1027.11,11111222 
TABS,ioos:station:wmo:42045:1,2017-03-04T03:30:00Z,26.2168,-96.4998,1027.17,11111222 
TABS,ioos:station:wmo:42045:1,2017-03-04T04:00:00Z,26.2168,-96.4998,1027.16,11111222 
TABS,ioos:station:wmo:42045:1,2017-03-04T04:30:00Z,26.2168,-96.4998,1026.77,11111222 
TABS,ioos:station:wmo:42045:1,2017-03-04T05:00:00Z,26.2168,-96.4998,1027.03,11111222 
TABS,ioos:station:wmo:42045:1,2017-03-04T05:30:00Z,26.2168,-96.4998,1026.69,11111222 
TABS,ioos:station:wmo:42045:1,2017-03-04T06:00:00Z,26.2168,-96.4998,1026.88,11111222 
TABS,ioos:station:wmo:42045:1,2017-03-04T06:30:00Z,26.2168,-96.4998,1026.72,11111222 
TABS,ioos:station:wmo:42045:1,2017-03-04T07:00:00Z,26.2168,-96.4998,1026.35,11111222 
TABS,ioos:station:wmo:42045:1,2017-03-04T07:30:00Z,26.2168,-96.4998,1026.14,11111222 
TABS,ioos:station:wmo:42045:1,2017-03-04T08:00:00Z,26.2168,-96.4998,1025.64,11111222 
TABS,ioos:station:wmo:42045:1,2017-03-04T08:30:00Z,26.2168,-96.4998,1025.23,11111222 
TABS,ioos:station:wmo:42045:1,2017-03-04T09:00:00Z,26.2168,-96.4998,1024.52,11111222 
TABS,ioos:station:wmo:42045:1,2017-03-04T09:30:00Z,26.2168,-96.4998,1024.65,11111222 
TABS,ioos:station:wmo:42045:1,2017-03-04T10:00:00Z,26.2168,-96.4998,1024.47,11111222 
TABS,ioos:station:wmo:42045:1,2017-03-04T10:30:00Z,26.2168,-96.4998,1024.16,11111222 
TABS,ioos:station:wmo:42045:1,2017-03-04T11:00:00Z,26.2168,-96.4998,1024.57,11111222 
TABS,ioos:station:wmo:42045:1,2017-03-04T11:30:00Z,26.2168,-96.4998,1024.81,11111222 
TABS,ioos:station:wmo:42045:1,2017-03-04T12:00:00Z,26.2168,-96.4998,1024.61,11111222 
TABS,ioos:station:wmo:42045:1,2017-03-04T12:30:00Z,26.2168,-96.4998,1024.73,11111222 
TABS,ioos:station:wmo:42045:1,2017-03-04T13:00:00Z,26.2168,-96.4998,1024.69,11111222 
TABS,ioos:station:wmo:42045:1,2017-03-04T13:30:00Z,26.2168,-96.4998,1025.38,11111222 
TABS,ioos:station:wmo:42045:1,2017-03-04T14:00:00Z,26.2168,-96.4998,1025.35,11111222 
TABS,ioos:station:wmo:42045:1,2017-03-04T14:30:00Z,26.2168,-96.4998,1025.11,11111222 
TABS,ioos:station:wmo:42045:1,2017-03-04T15:00:00Z,26.2168,-96.4998,1024.77,11111222 
TABS,ioos:station:wmo:42045:1,2017-03-04T15:30:00Z,26.2168,-96.4998,1025.32,11111222 
TABS,ioos:station:wmo:42045:1,2017-03-04T16:00:00Z,26.2168,-96.4998,1025.1,11111222 
TABS,ioos:station:wmo:42045:1,2017-03-04T16:30:00Z,26.2168,-96.4998,1025.09,11111222 
TABS,ioos:station:wmo:42045:1,2017-03-04T17:00:00Z,26.2168,-96.4998,1025.15,11111222 
TABS,ioos:station:wmo:42045:1,2017-03-04T17:30:00Z,26.2168,-96.4998,1024.59,11111222 
TABS,ioos:station:wmo:42045:1,2017-03-04T18:00:00Z,26.2168,-96.4998,1023.86,11111222 
TABS,ioos:station:wmo:42045:1,2017-03-04T18:30:00Z,26.2168,-96.4998,1023.52,11111222 
TABS,ioos:station:wmo:42045:1,2017-03-04T19:00:00Z,26.2168,-96.4998,1022.76,11111222 
TABS,ioos:station:wmo:42045:1,2017-03-04T19:30:00Z,26.2168,-96.4998,1022.46,11111222 
TABS,ioos:station:wmo:42045:1,2017-03-04T20:00:00Z,26.2168,-96.4998,1021.94,11111222 
TABS,ioos:station:wmo:42045:1,2017-03-04T20:30:00Z,26.2168,-96.4998,1021.74,11111222 
TABS,ioos:station:wmo:42045:1,2017-03-04T21:00:00Z,26.2168,-96.4998,1021.59,11111222 
TABS,ioos:station:wmo:42045:1,2017-03-04T21:30:00Z,26.2168,-96.4998,1021.61,11111222 
TABS,ioos:station:wmo:42045:1,2017-03-04T22:00:00Z,26.2168,-96.4998,1021.29,11111222 
TABS,ioos:station:wmo:42045:1,2017-03-04T22:30:00Z,26.2168,-96.4998,1021.11,11111222 
TABS,ioos:station:wmo:42045:1,2017-03-04T23:00:00Z,26.2168,-96.4998,1021.27,11111222 
TABS,ioos:station:wmo:42045:1,2017-03-04T23:30:00Z,26.2168,-96.4998,1021.19,11111222 
TABS,ioos:station:wmo:42045:1,2017-03-05T00:00:00Z,26.2168,-96.4998,1020.91,11111222 
TABS,ioos:station:wmo:42045:1,2017-03-05T00:30:00Z,26.2168,-96.4998,1020.88,11111222 
TABS,ioos:station:wmo:42045:1,2017-03-05T01:00:00Z,26.2168,-96.4998,1021.11,11111222 
TABS,ioos:station:wmo:42045:1,2017-03-05T01:30:00Z,26.2168,-96.4998,1020.9,11111222 
TABS,ioos:station:wmo:42045:1,2017-03-05T02:00:00Z,26.2168,-96.4998,1020.6,11111222 
TABS,ioos:station:wmo:42045:1,2017-03-05T02:30:00Z,26.2168,-96.4998,1021.74,11111222 
TABS,ioos:station:wmo:42045:1,2017-03-05T03:00:00Z,26.2168,-96.4998,1021.92,11111222 
TABS,ioos:station:wmo:42045:1,2017-03-05T03:30:00Z,26.2168,-96.4998,1022.25,11111222 
TABS,ioos:station:wmo:42045:1,2017-03-05T04:00:00Z,26.2168,-96.4998,1022.42,11111222 
TABS,ioos:station:wmo:42045:1,2017-03-05T04:30:00Z,26.2168,-96.4998,1022.78,11111222 
TABS,ioos:station:wmo:42045:1,2017-03-05T05:00:00Z,26.2168,-96.4998,1022.51,11111222 
TABS,ioos:station:wmo:42045:1,2017-03-05T05:30:00Z,26.2168,-96.4998,1022.68,11111222 
TABS,ioos:station:wmo:42045:1,2017-03-05T06:00:00Z,26.2168,-96.4998,1021.84,11111222 
TABS,ioos:station:wmo:42045:1,2017-03-05T06:30:00Z,26.2168,-96.4998,1020.98,11111222 
TABS,ioos:station:wmo:42045:1,2017-03-05T07:00:00Z,26.2168,-96.4998,1019.55,11111222 
TABS,ioos:station:wmo:42045:1,2017-03-05T07:30:00Z,26.2168,-96.4998,1019.87,11111222 
TABS,ioos:station:wmo:42045:1,2017-03-05T08:00:00Z,26.2168,-96.4998,1018.89,11111222 
TABS,ioos:station:wmo:42045:1,2017-03-05T08:30:00Z,26.2168,-96.4998,1018.68,11111222 
TABS,ioos:station:wmo:42045:1,2017-03-05T09:00:00Z,26.2168,-96.4998,1018.55,11111222 
TABS,ioos:station:wmo:42045:1,2017-03-05T09:30:00Z,26.2168,-96.4998,1018.24,11111222 
TABS,ioos:station:wmo:42045:1,2017-03-05T10:00:00Z,26.2168,-96.4998,1018.23,11111222 
TABS,ioos:station:wmo:42045:1,2017-03-05T10:30:00Z,26.2168,-96.4998,1018.71,11111222 
TABS,ioos:station:wmo:42045:1,2017-03-05T11:00:00Z,26.2168,-96.4998,1018.91,11111222 
TABS,ioos:station:wmo:42045:1,2017-03-05T11:30:00Z,26.2168,-96.4998,1019.13,11111222 
TABS,ioos:station:wmo:42045:1,2017-03-05T12:00:00Z,26.2168,-96.4998,1019.2,11111222 
TABS,ioos:station:wmo:42045:1,2017-03-05T12:30:00Z,26.2168,-96.4998,1019.39,11111222 
TABS,ioos:station:wmo:42045:1,2017-03-05T13:00:00Z,26.2168,-96.4998,1019.65,11111222 
TABS,ioos:station:wmo:42045:1,2017-03-05T13:30:00Z,26.2168,-96.4998,1020.08,11111222 
TABS,ioos:station:wmo:42045:1,2017-03-05T14:00:00Z,26.2168,-96.4998,1020.19,11111222 
TABS,ioos:station:wmo:42045:1,2017-03-05T14:30:00Z,26.2168,-96.4998,1020.65,11111222 
TABS,ioos:station:wmo:42045:1,2017-03-05T15:00:00Z,26.2168,-96.4998,1020.86,11111222 
TABS,ioos:station:wmo:42045:1,2017-03-05T15:30:00Z,26.2168,-96.4998,1021.1,11111222 
TABS,ioos:station:wmo:42045:1,2017-03-05T16:00:00Z,26.2168,-96.4998,1021.02,11111222 
TABS,ioos:station:wmo:42045:1,2017-03-05T16:30:00Z,26.2168,-96.4998,1020.75,11111222 
TABS,ioos:station:wmo:42045:1,2017-03-05T17:00:00Z,26.2168,-96.4998,1020.44,11111222 
TABS,ioos:station:wmo:42045:1,2017-03-05T17:30:00Z,26.2168,-96.4998,1020.17,11111222 
TABS,ioos:station:wmo:42045:1,2017-03-05T18:00:00Z,26.2168,-96.4998,1019.95,11111222 
TABS,ioos:station:wmo:42045:1,2017-03-05T18:30:00Z,26.2168,-96.4998,1019.32,11111222 
TABS,ioos:station:wmo:42045:1,2017-03-05T19:00:00Z,26.2168,-96.4998,1018.87,11111222 
TABS,ioos:station:wmo:42045:1,2017-03-05T19:30:00Z,26.2168,-96.4998,1018.42,11111222 
TABS,ioos:station:wmo:42045:1,2017-03-05T20:00:00Z,26.2168,-96.4998,1017.97,11111222 
TABS,ioos:station:wmo:42045:1,2017-03-05T20:30:00Z,26.2168,-96.4998,1017.51,11111222 
TABS,ioos:station:wmo:42045:1,2017-03-05T21:00:00Z,26.2168,-96.4998,1017.16,11111222 
TABS,ioos:station:wmo:42045:1,2017-03-05T21:30:00Z,26.2168,-96.4998,1017.01,11111222 
TABS,ioos:station:wmo:42045:1,2017-03-05T22:00:00Z,26.2168,-96.4998,1016.7,11111222 
TABS,ioos:station:wmo:42045:1,2017-03-05T22:30:00Z,26.2168,-96.4998,1016.56,11111222 
TABS,ioos:station:wmo:42045:1,2017-03-05T23:00:00Z,26.2168,-96.4998,1016.65,11111222 
TABS,ioos:station:wmo:42045:1,2017-03-05T23:30:00Z,26.2168,-96.4998,1016.62,11111222 
TABS,ioos:station:wmo:42045:1,2017-03-06T00:00:00Z,26.2168,-96.4998,1016.69,11111222 
TABS,ioos:station:wmo:42045:1,2017-03-06T00:30:00Z,26.2168,-96.4998,1016.83,11111222 
TABS,ioos:station:wmo:42045:1,2017-03-06T01:00:00Z,26.2168,-96.4998,1016.76,11111222 
TABS,ioos:station:wmo:42045:1,2017-03-06T01:30:00Z,26.2168,-96.4998,1017.1,11111222 
TABS,ioos:station:wmo:42045:1,2017-03-06T02:00:00Z,26.2168,-96.4998,1017.18,11111222 
TABS,ioos:station:wmo:42045:1,2017-03-06T02:30:00Z,26.2168,-96.4998,1017.38,11111222 
TABS,ioos:station:wmo:42045:1,2017-03-06T03:00:00Z,26.2168,-96.4998,1017.8,11111222 
TABS,ioos:station:wmo:42045:1,2017-03-06T03:30:00Z,26.2168,-96.4998,1017.66,11111222 
TABS,ioos:station:wmo:42045:1,2017-03-06T04:00:00Z,26.2168,-96.4998,1017.71,11111222 
TABS,ioos:station:wmo:42045:1,2017-03-06T04:30:00Z,26.2168,-96.4998,1017.62,11111222 
TABS,ioos:station:wmo:42045:1,2017-03-06T05:00:00Z,26.2168,-96.4998,1017.58,11111222 
TABS,ioos:station:wmo:42045:1,2017-03-06T05:30:00Z,26.2168,-96.4998,1017.38,11111222 
TABS,ioos:station:wmo:42045:1,2017-03-06T06:00:00Z,26.2168,-96.4998,1017.26,11111222 
TABS,ioos:station:wmo:42045:1,2017-03-06T06:30:00Z,26.2168,-96.4998,1017.26,11111222 
TABS,ioos:station:wmo:42045:1,2017-03-06T07:00:00Z,26.2168,-96.4998,1017.1,11111222 
TABS,ioos:station:wmo:42045:1,2017-03-06T07:30:00Z,26.2168,-96.4998,1016.7,11111222 
TABS,ioos:station:wmo:42045:1,2017-03-06T08:00:00Z,26.2168,-96.4998,1016.54,11111222 
TABS,ioos:station:wmo:42045:1,2017-03-06T08:30:00Z,26.2168,-96.4998,1016.19,11111222 
TABS,ioos:station:wmo:42045:1,2017-03-06T09:00:00Z,26.2168,-96.4998,1015.74,11111222 
TABS,ioos:station:wmo:42045:1,2017-03-06T09:30:00Z,26.2168,-96.4998,1015.43,11111222 
TABS,ioos:station:wmo:42045:1,2017-03-06T10:00:00Z,26.2168,-96.4998,1014.95,11111222 
TABS,ioos:station:wmo:42045:1,2017-03-06T10:30:00Z,26.2168,-96.4998,1014.8,11111222 
TABS,ioos:station:wmo:42045:1,2017-03-06T11:00:00Z,26.2168,-96.4998,1014.88,11111222 
TABS,ioos:station:wmo:42045:1,2017-03-06T11:30:00Z,26.2168,-96.4998,1014.86,11111222 
TABS,ioos:station:wmo:42045:1,2017-03-06T12:00:00Z,26.2168,-96.4998,1015.09,11111222 
TABS,ioos:station:wmo:42045:1,2017-03-06T12:30:00Z,26.2168,-96.4998,1015.07,11111222 
TABS,ioos:station:wmo:42045:1,2017-03-06T13:00:00Z,26.2168,-96.4998,1015.18,11111222 
TABS,ioos:station:wmo:42045:1,2017-03-06T13:30:00Z,26.2168,-96.4998,1015.27,11111222 
TABS,ioos:station:wmo:42045:1,2017-03-06T14:00:00Z,26.2168,-96.4998,1015.91,11111222 
TABS,ioos:station:wmo:42045:1,2017-03-06T14:30:00Z,26.2168,-96.4998,1016.1,11111222 
TABS,ioos:station:wmo:42045:1,2017-03-06T15:00:00Z,26.2168,-96.4998,1016.3,11111222 
TABS,ioos:station:wmo:42045:1,2017-03-06T15:30:00Z,26.2168,-96.4998,1016.66,11111222 
TABS,ioos:station:wmo:42045:1,2017-03-06T16:00:00Z,26.2168,-96.4998,1016.83,11111222 
TABS,ioos:station:wmo:42045:1,2017-03-06T16:30:00Z,26.2168,-96.4998,1016.79,11111222 
TABS,ioos:station:wmo:42045:1,2017-03-06T17:00:00Z,26.2168,-96.4998,1016.83,11111222 
TABS,ioos:station:wmo:42045:1,2017-03-06T17:30:00Z,26.2168,-96.4998,1016.64,11111222 
TABS,ioos:station:wmo:42045:1,2017-03-06T18:00:00Z,26.2168,-96.4998,1015.78,11111222 
TABS,ioos:station:wmo:42045:1,2017-03-06T18:30:00Z,26.2168,-96.4998,1015.23,11111222 